Regional Weather Roundup
Issued by NWS

Home | Current Version | Previous Version | Graphics & Text | Print | Product List | Glossary On
Versions: 1 2 3 4 5 6 7 8 9 10 11 12 13 14 15 16 17 18 19 20 21 22 23 24 25 26 27 28 29 30 31 32 33 34 35 36 37 38 39 40 41 42 43 44 45 46 47 48 49 50
000
ASUS43 KTOP 012108
RWRKS

WEATHER ROUNDUP FOR KANSAS
NATIONAL WEATHER SERVICE GOODLAND KS
400 PM CDT TUE SEP 01 2015

NOTE:  "FAIR" INDICATES FEW OR NO CLOUDS BELOW 12,000 FEET WITH NO
SIGNIFICANT WEATHER AND/OR OBSTRUCTIONS TO VISIBILITY.

KSZ001>006-013>018-027>032-041>047-012200-
NORTHWEST KANSAS

CITY           SKY/WX    TMP DP  RH WIND       PRES   REMARKS
GOODLAND       MOSUNNY   91  52  26 SE8       29.97F
HAYS           SUNNY     99  57  25 SW21G29   29.89F HX  97
HILL CITY      MOSUNNY   97  58  27 MISG      29.89F HX  96
RUSSELL        SUNNY     99  59  26 S22G31    29.88F HX  99
$$

KSZ061>065-074>080-084>089-012200-
SOUTHWEST KANSAS

CITY           SKY/WX    TMP DP  RH WIND       PRES   REMARKS
DODGE CITY     SUNNY     95  53  24 S15G23    29.94F
ELKHART          N/A     91  58  32 S9          N/A
GARDEN CITY    SUNNY     93  56  28 S14       29.95F
GREAT BEND     SUNNY     99  61  28 S20G29    29.90F HX  99
LIBERAL        SUNNY     95  57  28 S21G28    29.97F
PRATT          SUNNY     95  54  24 MISG      29.95F
$$

KSZ066>073-081>083-090>101-012200-
SOUTHEAST KANSAS

CITY           SKY/WX    TMP DP  RH WIND       PRES   REMARKS
CHANUTE        SUNNY     88  68  51 S12       30.01F
COFFEYVILLE    SUNNY     88  70  55 S13       30.00F
HUTCHINSON     SUNNY     95  61  32 S23       29.93F HX  95
MEDICINE LODGE   N/A     96  60  30 S12G25    29.92F HX  96
NEWTON         SUNNY     93  63  36 S15G22    29.99F
PARSONS        SUNNY     87  69  54 S7        30.02F
WICHITA INTL   MOSUNNY   93  61  34 S15       29.94F
WICHITA JABRA  SUNNY     90  64  42 S14G23    29.96F
WICHITA MCCONL SUNNY     92  63  38 SE14      29.96F
WINFIELD       SUNNY     92  65  40 SE14      29.98F
$$

KSZ007>012-019>026-033>040-048>060-102>105-012200-
NORTHEAST KANSAS

CITY           SKY/WX    TMP DP  RH WIND       PRES   REMARKS
CONCORDIA      SUNNY     90  63  40 S20G28    29.90F
EMPORIA        SUNNY     88  64  44 S20       29.98F
LAWRENCE       SUNNY     90  66  45 S15       29.98F
MANHATTAN      MOSUNNY   94  63  35 S15G22    29.93F HX  95
MARYSVILLE     MOSUNNY  N/A N/A N/A S15G23    29.93F
OLATHE IND     SUNNY     87  69  54 S13G21    30.01F
OLATHE EXE     SUNNY     86  69  56 S12       30.01F
SALINA         SUNNY     95  63  34 S23G29    29.91F HX  96
TOPEKA BILLARD SUNNY     91  65  41 S14G24    29.97F
TOPEKA FORBES  SUNNY     91  65  41 S13       29.97F
$$



USA.gov is the U.S. government's official web portal to all federal, state and local government web resources and services.